WX4MMM Weather Reports


Display with metric or nautical units.
time (UTC)temp
F
wind
direction
speed
MPH
gust
MPH
rain 1hr
in
rain 24hr
in
rain mn
in
humidity
%
barometer
mb
20260510051503 61 281 0.0 0.0 0.00 0.00 0.00 92 1012.0
20260510051004 61 281 0.0 1.0 0.00 0.00 0.00 93 1012.0
20260510050504 61 109 0.0 1.0 0.00 0.00 0.00 94 1012.0
20260510045503 61 160 0.0 0.0 0.00 0.00 0.00 94 1012.1
20260510045004 60 160 0.0 1.0 0.00 0.00 0.00 94 1012.2
20260510044504 60 182 0.0 0.0 0.00 0.00 0.00 94 1012.3
20260510044004 60 182 0.0 0.0 0.00 0.00 0.00 94 1012.1
20260510043503 60 182 0.0 0.0 0.00 0.00 0.00 94 1012.1
20260510043004 60 182 0.0 0.0 0.00 0.00 0.00 94 1012.1
20260510042504 60 182 0.0 0.0 0.00 0.00 0.00 94 1012.0
20260510042004 60 182 0.0 0.0 0.00 0.00 0.00 94 1012.1
20260510041005 60 182 0.0 0.0 0.00 0.00 0.00 94 1012.1
20260510040504 60 182 1.0 1.0 0.00 0.00 0.00 94 1012.0
20260510040004 60 156 0.0 0.0 0.00 0.00 0.00 94 1012.0
20260510035504 60 156 0.0 1.0 0.00 0.00 0.00 94 1011.9
20260510035004 60 28 0.0 0.0 0.00 0.00 0.00 94 1012.0
20260510034504 60 28 0.0 0.0 0.00 0.00 0.00 94 1012.0
20260510034004 61 28 0.0 1.0 0.00 0.00 0.00 94 1012.0
20260510033503 61 28 0.0 0.0 0.00 0.00 0.00 94 1012.0
20260510033003 61 28 0.0 0.0 0.00 0.00 0.00 94 1011.9
20260510032502 61 28 0.0 0.0 0.00 0.00 0.00 94 1011.9
20260510032003 61 28 0.0 0.0 0.00 0.00 0.00 94 1011.9
20260510031503 60 28 0.0 0.0 0.00 0.00 0.00 94 1011.9
20260510031003 60 28 0.0 1.0 0.00 0.00 0.00 94 1011.8
20260510030502 60 337 0.0 0.0 0.00 0.00 0.00 94 1011.8
20260510030004 60 337 0.0 0.0 0.00 0.00 0.00 94 1011.8
20260510025503 60 337 0.0 0.0 0.00 0.00 0.00 94 1011.7
20260510024503 60 337 0.0 0.0 0.00 0.00 0.00 94 1011.8
20260510024003 61 337 0.0 0.0 0.00 0.00 0.00 94 1011.8
20260510023504 61 337 0.0 0.0 0.00 0.00 0.00 94 1011.8
20260510023003 61 337 0.0 0.0 0.00 0.00 0.00 93 1011.8
20260510022502 61 337 0.0 1.0 0.00 0.00 0.00 93 1011.7
20260510021502 61 310 0.0 1.0 0.00 0.00 0.00 93 1011.6
20260510021003 61 300 0.0 1.0 0.00 0.00 0.00 92 1011.7
20260510020503 61 270 0.0 1.0 0.00 0.00 0.00 92 1011.7
20260510020002 61 295 0.0 1.0 0.00 0.00 0.00 92 1011.6
20260510015002 62 256 0.0 0.0 0.00 0.00 0.00 91 1011.6
20260510014503 62 287 0.0 0.0 0.00 0.00 0.00 91 1011.5
20260510014003 62 290 0.0 1.0 0.00 0.00 0.00 90 1011.4
20260510013503 62 279 0.0 1.0 0.00 0.00 0.00 90 1011.3
20260510013002 62 290 0.0 1.0 0.00 0.00 0.00 89 1011.2
20260510012503 63 341 0.0 0.0 0.00 0.00 0.00 88 1011.1
20260510012002 63 326 0.0 0.0 0.00 0.00 0.00 88 1011.0
20260510011503 64 294 0.0 0.0 0.00 0.00 0.00 87 1010.9
20260510011003 64 4 0.0 1.0 0.00 0.00 0.00 86 1010.9
20260510010502 64 258 0.0 1.0 0.00 0.00 0.00 86 1010.8
20260510010003 65 263 0.0 0.0 0.00 0.00 0.00 85 1010.8
20260510005502 65 213 0.0 1.0 0.00 0.00 0.00 84 1010.7
20260510005003 65 271 0.0 0.0 0.00 0.00 0.00 84 1010.8
20260510003503 66 266 0.0 1.0 0.00 0.00 0.00 82 1010.7
20260510003003 67 35 0.0 1.0 0.00 0.00 0.00 81 1010.8
20260510002502 67 39 0.0 1.0 0.00 0.00 0.00 80 1010.8
20260510002003 67 192 0.0 1.0 0.00 0.00 0.00 79 1010.8
20260510001502 67 357 0.0 1.0 0.00 0.00 0.00 78 1010.8
20260510001003 68 304 0.0 1.0 0.00 0.00 0.00 78 1010.7
20260510000503 68 337 0.0 1.0 0.00 0.00 0.00 77 1010.5
20260510000003 68 304 0.0 1.0 0.00 0.00 0.00 77 1010.5
20260509235503 69 25 0.0 1.0 0.00 0.00 0.00 76 1010.5
20260509234502 69 234 0.0 1.0 0.00 0.00 0.00 75 1010.2
20260509234003 70 339 0.0 1.0 0.00 0.00 0.00 73 1010.0
20260509233003 70 184 0.0 0.0 0.00 0.00 0.00 72 1010.2
20260509232502 71 185 0.0 1.0 0.00 0.00 0.00 72 1010.2
20260509232003 71 314 0.0 1.0 0.00 0.00 0.00 71 1010.1
20260509231503 71 165 0.0 1.0 0.00 0.00 0.00 71 1010.0
20260509231003 71 281 0.0 1.0 0.00 0.00 0.00 70 1010.0
20260509230503 71 323 0.0 1.0 0.00 0.00 0.00 70 1010.0
20260509230003 71 204 1.0 2.0 0.00 0.00 0.00 70 1010.0
20260509225503 71 141 1.0 3.0 0.00 0.00 0.00 69 1009.8
20260509224503 72 195 1.0 2.0 0.00 0.00 0.00 69 1009.8
20260509224004 72 209 0.0 3.0 0.00 0.00 0.00 68 1009.8
20260509223503 72 173 1.0 3.0 0.00 0.00 0.00 68 1009.9
20260509223003 72 124 1.0 3.0 0.00 0.00 0.00 68 1009.9
20260509222503 72 219 0.0 3.0 0.00 0.00 0.00 68 1009.9
20260509222003 72 176 0.0 2.0 0.00 0.00 0.00 68 1010.0
20260509221503 72 177 1.0 2.0 0.00 0.00 0.00 67 1009.9
20260509221004 72 142 1.0 6.0 0.00 0.00 0.00 67 1010.0
20260509220503 72 352 1.0 2.0 0.00 0.00 0.00 67 1010.0
20260509215503 72 241 1.0 6.0 0.00 0.00 0.00 66 1009.9
20260509215003 72 310 1.0 5.0 0.00 0.00 0.00 66 1009.9
20260509214503 72 164 2.0 3.0 0.00 0.00 0.00 66 1009.9
20260509214004 72 177 1.0 3.0 0.00 0.00 0.00 66 1009.8
20260509213503 72 177 2.0 5.0 0.00 0.00 0.00 65 1009.9
20260509213003 72 133 1.0 7.0 0.00 0.00 0.00 66 1009.6
20260509212504 72 303 2.0 5.0 0.00 0.00 0.00 66 1009.6
20260509211503 72 270 1.0 3.0 0.00 0.00 0.00 68 1009.5
20260509211003 72 180 1.0 3.0 0.00 0.00 0.00 67 1009.5
20260509210503 72 201 0.0 2.0 0.00 0.00 0.00 67 1009.5
20260509205503 72 163 1.0 3.0 0.00 0.00 0.00 67 1009.7
20260509204502 72 139 1.0 5.0 0.00 0.00 0.00 66 1009.7
20260509204003 72 250 1.0 3.0 0.00 0.00 0.00 66 1009.6
20260509203504 71 308 3.0 6.0 0.00 0.00 0.00 67 1009.6
20260509203003 72 200 2.0 3.0 0.00 0.00 0.00 67 1009.8
20260509202502 72 173 2.0 5.0 0.00 0.00 0.00 65 1009.7
20260509201503 72 222 1.0 2.0 0.00 0.00 0.00 67 1009.7
20260509201003 71 193 1.0 3.0 0.00 0.00 0.00 67 1009.6
20260509200003 71 181 2.0 3.0 0.00 0.00 0.00 66 1009.9
20260509195503 72 172 0.0 2.0 0.00 0.00 0.00 64 1010.0
20260509194503 71 268 1.0 2.0 0.00 0.00 0.00 63 1010.1
20260509194003 71 156 1.0 2.0 0.00 0.00 0.00 64 1010.1
20260509193502 71 194 2.0 5.0 0.00 0.00 0.00 62 1010.1
20260509192503 72 189 1.0 5.0 0.00 0.00 0.00 62 1010.4
20260509192003 72 271 1.0 3.0 0.00 0.00 0.00 61 1010.4
20260509191503 72 165 2.0 6.0 0.00 0.00 0.00 60 1010.3
20260509191003 73 325 2.0 6.0 0.00 0.00 0.00 60 1010.1
20260509190502 72 130 1.0 2.0 0.00 0.00 0.00 58 1010.2
20260509185502 73 177 1.0 3.0 0.00 0.00 0.00 58 1010.4
20260509185003 73 180 2.0 3.0 0.00 0.00 0.00 58 1010.3
20260509184003 74 157 1.0 5.0 0.00 0.00 0.00 57 1010.2
20260509183503 74 141 2.0 5.0 0.00 0.00 0.00 54 1010.2
20260509183002 75 142 1.0 5.0 0.00 0.00 0.00 55 1010.1
20260509182503 74 236 2.0 6.0 0.00 0.00 0.00 54 1010.1
20260509182003 74 270 1.0 3.0 0.00 0.00 0.00 56 1010.2
20260509181503 74 237 2.0 6.0 0.00 0.00 0.00 56 1010.4
20260509180503 73 213 1.0 9.0 0.00 0.00 0.00 54 1010.4
20260509180002 72 206 2.0 6.0 0.00 0.00 0.00 57 1010.7
20260509175502 72 168 3.0 6.0 0.00 0.00 0.00 55 1010.9
20260509175003 72 207 2.0 5.0 0.00 0.00 0.00 56 1010.9
20260509174003 73 236 2.0 5.0 0.00 0.00 0.00 55 1010.9
20260509173503 73 259 1.0 3.0 0.00 0.00 0.00 57 1010.8
20260509173003 72 201 1.0 3.0 0.00 0.00 0.00 56 1011.0
20260509172002 72 226 1.0 3.0 0.00 0.00 0.00 56 1011.2
20260509171003 72 118 3.0 5.0 0.00 0.00 0.00 56 1011.2
20260509170504 72 168 2.0 7.0 0.00 0.00 0.00 57 1011.4
20260509170002 72 198 2.0 3.0 0.00 0.00 0.00 58 1011.5
20260509165003 71 254 1.0 8.0 0.00 0.00 0.00 58 1011.5
20260509164504 71 231 2.0 9.0 0.00 0.00 0.00 58 1011.7
20260509164003 71 228 2.0 7.0 0.00 0.00 0.00 59 1011.6
20260509163503 72 194 2.0 6.0 0.00 0.00 0.00 58 1011.7
20260509163003 72 126 3.0 6.0 0.00 0.00 0.00 56 1011.4
20260509162503 72 144 1.0 3.0 0.00 0.00 0.00 58 1011.5
20260509162003 71 294 1.0 5.0 0.00 0.00 0.00 60 1011.6
20260509161502 72 260 2.0 3.0 0.00 0.00 0.00 59 1011.6
20260509161004 71 248 2.0 6.0 0.00 0.00 0.00 59 1011.6
20260509160504 71 163 2.0 6.0 0.00 0.00 0.00 59 1011.6
20260509160003 70 239 1.0 3.0 0.00 0.00 0.00 64 1011.6
20260509155003 71 201 1.0 5.0 0.00 0.00 0.00 64 1011.7
20260509154504 70 275 1.0 6.0 0.00 0.00 0.00 61 1011.7
20260509154003 70 171 2.0 6.0 0.00 0.00 0.00 61 1011.6
20260509153503 70 272 1.0 5.0 0.00 0.00 0.00 64 1011.5
20260509153003 69 107 2.0 6.0 0.00 0.00 0.00 62 1011.4
20260509152503 69 139 2.0 5.0 0.00 0.00 0.00 62 1011.5
20260509151503 69 161 2.0 6.0 0.00 0.00 0.00 62 1011.7
20260509151003 69 245 2.0 3.0 0.00 0.00 0.00 64 1011.9
20260509150502 69 131 3.0 6.0 0.00 0.00 0.00 62 1012.1
20260509150002 69 195 2.0 6.0 0.00 0.00 0.00 65 1012.2
20260509145503 69 131 1.0 3.0 0.00 0.00 0.00 65 1012.3
20260509145003 68 285 1.0 5.0 0.00 0.00 0.00 64 1012.2
20260509144503 68 184 2.0 3.0 0.00 0.00 0.00 66 1012.3
20260509144003 68 298 1.0 5.0 0.00 0.00 0.00 64 1012.5
20260509143502 67 239 2.0 5.0 0.00 0.00 0.00 63 1012.5
20260509143003 67 127 2.0 5.0 0.00 0.00 0.00 64 1012.6
20260509142503 67 283 1.0 3.0 0.00 0.00 0.00 67 1012.6
20260509141502 66 102 1.0 3.0 0.00 0.00 0.00 67 1012.9
20260509141003 66 258 1.0 2.0 0.00 0.00 0.00 69 1013.0
20260509140503 66 134 1.0 5.0 0.00 0.00 0.00 70 1013.1
20260509140004 66 261 0.0 3.0 0.00 0.00 0.00 70 1013.0
20260509135502 65 299 1.0 3.0 0.00 0.00 0.00 73 1013.0
20260509133503 63 154 1.0 3.0 0.00 0.00 0.00 76 1013.2
20260509133004 63 146 0.0 1.0 0.00 0.00 0.00 79 1013.4
20260509132503 62 293 0.0 1.0 0.00 0.00 0.00 79 1013.5
20260509132004 62 318 0.0 1.0 0.00 0.00 0.00 78 1013.4
20260509131503 62 165 0.0 1.0 0.00 0.00 0.00 80 1013.3
20260509131004 62 166 0.0 1.0 0.00 0.00 0.00 81 1013.3
20260509130004 61 113 1.0 1.0 0.00 0.00 0.00 80 1013.5
20260509125503 61 177 2.0 2.0 0.00 0.00 0.00 81 1013.6
20260509125003 61 186 0.0 1.0 0.00 0.00 0.00 84 1013.4
20260509124502 60 152 0.0 2.0 0.00 0.00 0.00 85 1013.3
20260509124003 59 168 1.0 2.0 0.00 0.00 0.00 87 1013.2
20260509123503 58 154 1.0 2.0 0.00 0.00 0.00 90 1013.1
20260509123003 58 69 1.0 2.0 0.00 0.00 0.00 92 1012.9
20260509122503 57 6 0.0 2.0 0.00 0.00 0.00 94 1012.9
20260509122003 56 81 0.0 3.0 0.00 0.00 0.00 96 1012.9
20260509121502 56 174 2.0 3.0 0.00 0.00 0.00 96 1013.0
20260509121003 55 155 0.0 2.0 0.00 0.00 0.00 96 1013.2
20260509120503 55 102 0.0 1.0 0.00 0.00 0.00 96 1013.4
20260509120003 54 83 0.0 1.0 0.00 0.00 0.00 96 1013.5
20260509115503 54 116 0.0 1.0 0.00 0.00 0.00 96 1013.6
20260509115003 53 70 1.0 1.0 0.00 0.00 0.00 96 1013.7
20260509114503 52 186 1.0 1.0 0.00 0.00 0.00 96 1013.7
20260509114003 51 175 0.0 1.0 0.00 0.00 0.00 96 1013.6
20260509113503 51 144 0.0 1.0 0.00 0.00 0.00 96 1013.5
20260509113003 50 54 0.0 1.0 0.00 0.00 0.00 96 1013.4
20260509112503 50 184 0.0 1.0 0.00 0.00 0.00 96 1013.3
20260509112003 50 168 0.0 1.0 0.00 0.00 0.00 96 1013.2
20260509111503 49 344 0.0 0.0 0.00 0.00 0.00 96 1013.2
20260509111003 49 344 0.0 0.0 0.00 0.00 0.00 96 1013.2
20260509110503 49 279 0.0 0.0 0.00 0.00 0.00 96 1013.2
20260509110003 49 176 0.0 0.0 0.00 0.00 0.00 96 1013.1
20260509105502 49 176 0.0 0.0 0.00 0.00 0.00 96 1013.0
20260509105002 49 176 0.0 0.0 0.00 0.00 0.00 96 1012.9
20260509104003 49 176 1.0 1.0 0.00 0.00 0.00 95 1012.7
20260509103502 49 165 0.0 1.0 0.00 0.00 0.00 95 1012.6
20260509103004 50 81 0.0 1.0 0.00 0.00 0.00 95 1012.7
20260509102503 50 58 0.0 0.0 0.00 0.00 0.00 95 1012.9
20260509102003 50 58 0.0 0.0 0.00 0.00 0.00 95 1012.8
20260509101003 50 58 0.0 0.0 0.00 0.00 0.00 95 1012.7
20260509100503 51 58 0.0 0.0 0.00 0.00 0.00 95 1012.7
20260509100002 51 30 0.0 0.0 0.00 0.00 0.00 95 1012.6
20260509095503 51 30 0.0 1.0 0.00 0.00 0.00 95 1012.6
20260509095003 51 357 1.0 2.0 0.00 0.00 0.00 95 1012.6
20260509094503 51 290 0.0 2.0 0.00 0.00 0.00 95 1012.8
20260509094003 51 271 0.0 0.0 0.00 0.00 0.00 95 1012.8
20260509093503 51 271 0.0 0.0 0.00 0.00 0.00 95 1012.8
20260509093003 51 271 1.0 1.0 0.00 0.00 0.00 95 1012.8
20260509092503 51 286 0.0 0.0 0.00 0.00 0.00 94 1012.8
20260509092003 51 286 0.0 0.0 0.00 0.00 0.00 94 1012.7
20260509091503 51 286 0.0 0.0 0.00 0.00 0.00 94 1012.8
20260509091003 51 350 0.0 0.0 0.00 0.00 0.00 94 1012.9
20260509090503 51 350 0.0 0.0 0.00 0.00 0.00 94 1013.0
20260509085503 51 324 0.0 0.0 0.00 0.00 0.00 94 1013.0
20260509085004 51 324 0.0 0.0 0.00 0.00 0.00 94 1013.0
20260509084503 51 324 0.0 0.0 0.00 0.00 0.00 93 1013.1
20260509084003 52 115 0.0 0.0 0.00 0.00 0.00 93 1013.3
20260509083503 52 115 0.0 0.0 0.00 0.00 0.00 93 1013.3
20260509083004 52 115 0.0 0.0 0.00 0.00 0.00 93 1013.4
20260509082503 52 185 0.0 0.0 0.00 0.00 0.00 93 1013.5
20260509080003 53 257 0.0 0.0 0.00 0.00 0.00 91 1013.4
20260509075503 53 187 0.0 1.0 0.00 0.00 0.00 91 1013.4
20260509075003 53 137 0.0 1.0 0.00 0.00 0.00 90 1013.4
20260509074503 53 175 0.0 0.0 0.00 0.00 0.00 90 1013.5
20260509074003 53 175 0.0 1.0 0.00 0.00 0.00 90 1013.4
20260509073502 53 105 0.0 1.0 0.00 0.00 0.00 90 1013.4
20260509073003 53 150 0.0 1.0 0.00 0.00 0.00 90 1013.5
20260509072503 53 193 0.0 1.0 0.00 0.00 0.00 89 1013.4
20260509072003 54 288 0.0 0.0 0.00 0.00 0.00 89 1013.5
20260509071503 54 288 0.0 1.0 0.00 0.00 0.00 88 1013.5
20260509071004 54 193 0.0 1.0 0.00 0.00 0.00 88 1013.6
20260509070503 54 149 0.0 0.0 0.00 0.00 0.00 88 1013.6
20260509070003 54 153 0.0 1.0 0.00 0.00 0.00 88 1013.6
20260509065003 54 158 0.0 0.0 0.00 0.00 0.00 86 1013.6
20260509064003 55 158 0.0 2.0 0.00 0.00 0.00 85 1013.7
20260509063503 55 39 0.0 0.0 0.00 0.00 0.00 86 1013.8
20260509063002 55 49 0.0 1.0 0.00 0.00 0.00 85 1013.7
20260509062003 55 50 0.0 1.0 0.00 0.00 0.00 85 1014.1
20260509061504 55 89 0.0 0.0 0.00 0.00 0.00 85 1014.2
20260509060503 55 107 0.0 1.0 0.00 0.00 0.00 84 1014.4
20260509060003 55 212 0.0 1.0 0.00 0.00 0.00 83 1014.3
20260509055503 56 259 0.0 0.0 0.00 0.00 0.00 82 1014.4
20260509055004 56 258 0.0 0.0 0.00 0.00 0.00 82 1014.5
20260509054503 55 248 1.0 1.0 0.00 0.00 0.00 83 1014.5
20260509054003 55 262 0.0 0.0 0.00 0.00 0.00 83 1014.6
20260509053003 56 262 0.0 0.0 0.00 0.00 0.00 82 1014.6
20260509052503 56 277 0.0 1.0 0.00 0.00 0.00 82 1014.6
20260509052003 56 257 0.0 0.0 0.00 0.00 0.00 81 1014.7